Current weather by "City, St" or "zip code"  
 

Current Conditions: Port Clinton Carl R Keller Field Airport, OH

Overcast


75.0 F

Last Updated on May 21 2022, 4:55 am EDT
Humidity: 74%
Wind Speed: SW 13.8 mph
Barometer 29.82 in
Dewpoint: 66.2 F
Visibility: 10.00 mi
Precip: --
Heat Index: NA
Wind Chill: NA
Current conditions at:

Port Clinton Carl R Keller Field Airport, OH (KPCW)

Lat: 41.5163 Lon: 82.8687

Local Radar Image active severe weather and emergency alerts image image weather storm and storm spotter reports image weather observation monitoring service image
Local
Radar
Active
Alerts
Storm Reports Obs
Monitoring

Sign-up For Email & Text Message Weather Alert Notification Services



Advertise Here

Observation History for Port Clinton Carl R Keller Field Airport, OH


Time Wind
(mph)
Vis
(mi)
Weather Precip (in) Temperature (F) Relative
Humidity
Wind
Chill
(F)
Heat
Index
(F)
Pressure
Air Dwpt altimeter
(in)
sea level
(mb)
Rmks
4:55 am EDT SW 13.8 10.00 Overcast -- 75.0 66.2 74% NA NA 29.82 M
4:35 am EDT SW 13.8 G 21.9 10.00 Overcast -- 75.0 66.2 74% NA NA 29.81 M
4:15 am EDT SW 12.7 10.00 Overcast -- 75.0 66.2 74% NA NA 29.81 M
3:55 am EDT SW 12.7 10.00 Overcast -- 75.0 66.2 74% NA NA 29.80 M
3:35 am EDT SW 12.7 G 18.4 10.00 Overcast -- 75.0 66.2 74% NA NA 29.79 M
2:55 am EDT SW 11.5 10.00 Overcast -- 75.0 68.0 78% NA NA 29.78 M
2:35 am EDT SW 10.4 G 18.4 10.00 Overcast -- 75.0 68.0 78% NA NA 29.76 M
2:15 am EDT SW 11.5 10.00 Overcast -- 75.0 68.0 78% NA NA 29.75 M
1:55 am EDT SW 9.2 G 19.6 10.00 Mostly Cloudy -- 77.0 66.2 69% NA NA 29.75 M
1:15 am EDT SW 10.4 G 18.4 10.00 A Few Clouds -- 77.0 66.2 69% NA NA 29.76 M
12:55 am EDT SW 11.5 G 18.4 10.00 Fair -- 77.0 66.2 69% NA NA 29.76 M
12:35 am EDT SW 11.5 10.00 Fair -- 77.0 66.2 69% NA NA 29.76 M
12:15 am EDT SW 11.5 G 17.3 10.00 Fair -- 77.0 66.2 69% NA NA 29.76 M
11:55 pm EDT SW 10.4 G 17.3 10.00 Fair -- 77.0 66.2 69% NA NA 29.76 M
11:35 pm EDT SW 9.2 G 17.3 10.00 Fair -- 77.0 66.2 69% NA NA 29.75 M
10:55 pm EDT SW 12.7 10.00 Fair -- 79.0 64.4 61% NA NA 29.73 M
10:15 pm EDT SW 16.1 G 24.2 10.00 Fair -- 81.0 64.4 58% NA 83 29.71 M
9:55 pm EDT SW 13.8 G 19.6 10.00 Fair -- 81.0 64.4 58% NA 83 29.70 M
9:35 pm EDT SW 12.7 G 18.4 10.00 Fair -- 81.0 62.6 54% NA 82 29.69 M
9:15 pm EDT SW 16.1 10.00 Fair -- 82.0 62.6 51% NA 83 29.67 M
8:55 pm EDT SW 17.3 10.00 Fair -- 82.0 62.6 51% NA 83 29.65 M
8:35 pm EDT SW 13.8 10.00 Fair -- 82.0 64.4 55% NA 83 29.64 M
8:15 pm EDT SW 13.8 G 21.9 10.00 Fair -- 84.0 62.6 48% NA 85 29.62 M
7:55 pm EDT SW 11.5 G 19.6 10.00 Fair -- 82.0 66.2 58% NA 84 29.61 M

Regional Weather Observation


Port Clinton Carl R Keller Field Airport, OH (KPCW)

Overcast
75.0 F

Toledo - Toledo Executive Airport, OH (KTDZ)

Partly Cloudy
77.0 F

Lambertville, Toledo Suburban Airport, MI (KDUH)

Partly Cloudy
75.0 F

Toledo - Toledo Express Airport, OH (KTOL)

A Few Clouds
76.0 F

Detroit/Grosse Ile, Grosse Ile Airport, MI (KONZ)

Partly Cloudy
74.0 F

Findlay, Findlay Airport, OH (KFDY)

Fair
77.0 F

Advertise Here


Advertise Here